Location: Newark
(47.5833°N, 8.1500°E)
Time: 06:18:12
(UTC+00:00)

Tiros 1 despin weight - Pass Details

Date: 01 November 2020
Orbit: 593 x 642 km, 48.2° (Epoch: 30 November)

Event Time Altitude Azimuth Distance (km) Brightness Sun altitude
Exits shadow 03:05:20 18° 124° (SE) 1,462 ? -31.7°
Drops below altitude 10° 03:06:32 10° 121° (ESE) 1,920 ? -31.5°
Sets 03:08:50 0° 118° (ESE) 2,819 ? -31.1°
